EW0596 Weather Reports


time (UTC)temp
F
wind
direction
speed
knots
gust
knots
rain 1hr
in
rain 24hr
in
rain mn
in
humidity
%
barometer
mb
20260505093051 54 38 0.0 2.6 0.00 0.00 0.00 55 1011.7
20260505091548 54 66 0.9 6.1 0.00 0.00 0.00 57 1011.6
20260505090046 53 59 0.9 2.6 0.00 0.00 0.00 59 1011.5
20260505084544 54 50 0.0 2.6 0.00 0.00 0.00 59 1011.4
20260505083040 54 62 0.0 3.5 0.00 0.00 0.00 58 1011.2
20260505081544 54 61 0.0 1.7 0.00 0.00 0.00 58 1011.1
20260505080038 54 69 0.9 2.6 0.00 0.00 0.00 58 1011.0
20260505074531 55 63 0.0 2.6 0.00 0.00 0.00 59 1010.9
20260505073038 54 61 0.9 2.6 0.00 0.00 0.00 59 1010.7
20260505071543 55 55 0.0 2.6 0.00 0.00 0.00 59 1010.5
20260505070021 55 54 0.9 2.6 0.00 0.00 0.00 59 1010.3
20260505064523 56 57 0.0 2.6 0.00 0.00 0.00 56 1010.3
20260505063015 57 53 0.9 4.3 0.00 0.00 0.00 54 1010.2
20260505061523 57 67 0.0 1.7 0.00 0.00 0.00 55 1010.1
20260505060016 57 66 0.0 2.6 0.00 0.00 0.00 54 1010.0
20260505054512 56 61 0.0 1.7 0.00 0.00 0.00 57 1009.9
20260505053007 56 55 0.0 1.7 0.00 0.00 0.00 58 1009.8
20260505051552 57 58 0.9 1.7 0.00 0.00 0.00 58 1009.8
20260505041534 57 54 0.0 2.6 0.00 0.00 0.00 57 1009.0
20260505040040 58 72 0.9 1.7 0.00 0.00 0.00 57 1008.8
20260505034525 59 74 0.0 1.7 0.00 0.00 0.00 54 1008.5
20260505033025 58 67 0.0 0.9 0.00 0.00 0.00 57 1008.3
20260505031505 60 67 0.0 0.9 0.00 0.00 0.00 55 1008.2
20260505030105 63 67 0.0 1.7 0.00 0.00 0.00 49 1008.1
20260505024556 66 69 0.0 2.6 0.00 0.00 0.00 43 1008.1
20260505023057 68 50 0.0 6.1 0.00 0.00 0.00 39 1008.1
20260505021547 70 123 0.0 3.5 0.00 0.00 0.00 37 1008.1
20260505020043 71 61 0.0 4.3 0.00 0.00 0.00 35 1008.0
20260505014538 72 43 0.0 2.6 0.00 0.00 0.00 34 1007.9
20260505013033 72 55 0.9 4.3 0.00 0.00 0.00 32 1007.8
20260505011517 73 302 0.9 3.5 0.00 0.00 0.00 34 1007.9
20260505010013 73 146 0.0 0.9 0.00 0.00 0.00 36 1007.9
20260505004509 74 89 0.0 4.3 0.00 0.00 0.00 31 1007.9
20260505003005 74 148 0.0 3.5 0.00 0.00 0.00 32 1007.9
20260505001600 75 130 1.7 4.3 0.00 0.00 0.00 31 1007.9
20260505000108 76 130 0.0 6.1 0.00 0.00 0.00 35 1007.9
20260504234550 75 85 0.0 5.2 0.00 0.00 0.00 36 1008.0
20260504233049 75 163 0.9 6.1 0.00 0.00 0.00 33 1008.0
20260504231543 75 148 0.9 4.3 0.00 0.00 0.00 34 1008.1
20260504230021 75 149 0.9 3.5 0.00 0.00 0.00 35 1008.3
20260504224516 75 99 0.9 4.3 0.00 0.00 0.00 31 1008.4
20260504223101 76 101 0.0 4.3 0.00 0.00 0.00 31 1008.4
20260504221556 75 148 1.7 7.8 0.00 0.00 0.00 33 1008.4
20260504220110 75 142 0.9 6.1 0.00 0.00 0.00 33 1008.5
20260504214553 75 243 0.9 4.3 0.00 0.00 0.00 34 1008.6
20260504213050 74 142 1.7 6.1 0.00 0.00 0.00 33 1008.7
20260504211539 75 75 0.9 3.5 0.00 0.00 0.00 37 1008.8
20260504210034 74 136 0.0 4.3 0.00 0.00 0.00 34 1008.8
20260504204529 73 35 0.9 6.1 0.00 0.00 0.00 34 1009.1
20260504203014 73 123 0.0 7.8 0.00 0.00 0.00 37 1009.1
20260504201510 72 144 0.9 6.1 0.00 0.00 0.00 37 1009.3
20260504200004 72 134 1.7 7.0 0.00 0.00 0.00 35 1009.3
20260504194601 72 127 0.9 6.1 0.00 0.00 0.00 41 1009.3
20260504193059 71 117 1.7 5.2 0.00 0.00 0.00 39 1009.5
20260504191557 71 70 0.9 5.2 0.00 0.00 0.00 36 1009.4
20260504190057 71 123 0.9 7.8 0.00 0.00 0.00 38 1009.4
20260504184554 71 119 0.9 5.2 0.00 0.00 0.00 41 1009.5
20260504183037 70 192 0.0 3.5 0.00 0.00 0.00 41 1009.5
20260504181523 70 121 0.0 7.0 0.00 0.00 0.00 40 1009.6
20260504180001 70 162 0.0 7.0 0.00 0.00 0.00 40 1009.7
20260504174606 69 142 0.9 5.2 0.00 0.00 0.00 38 1009.7
20260504173057 69 136 1.7 7.8 0.00 0.00 0.00 42 1009.7
20260504171548 67 128 0.0 3.5 0.00 0.00 0.00 45 1009.7